TimeCDT,TemperatureF,Dew PointF,Humidity,Sea Level PressureIn,VisibilityMPH,Wind Direction,Wind SpeedMPH,Gust SpeedMPH,PrecipitationIn,Events,Conditions,WindDirDegrees,DateUTC
12:54 AM,52.0,39.9,63,29.91,10.0,East,3.5,-,N/A,,Clear,90,2012-11-02 05:54:00
1:54 AM,50.0,39.9,68,29.89,10.0,ESE,3.5,-,N/A,,Clear,110,2012-11-02 06:54:00
2:54 AM,48.9,39.9,71,29.88,10.0,ESE,3.5,-,N/A,,Clear,110,2012-11-02 07:54:00
3:54 AM,48.9,39.9,71,29.87,10.0,ESE,3.5,-,N/A,,Clear,110,2012-11-02 08:54:00
4:54 AM,46.0,39.0,76,29.88,10.0,ENE,5.8,-,N/A,,Clear,70,2012-11-02 09:54:00
5:54 AM,46.9,39.9,77,29.87,10.0,ESE,4.6,-,N/A,,Clear,110,2012-11-02 10:54:00
6:54 AM,48.0,41.0,77,29.86,10.0,SE,6.9,-,N/A,,Clear,130,2012-11-02 11:54:00
7:54 AM,50.0,42.1,74,29.86,10.0,SE,6.9,-,N/A,,Clear,130,2012-11-02 12:54:00
8:54 AM,52.0,43.0,71,29.86,10.0,SE,6.9,-,N/A,,Clear,130,2012-11-02 13:54:00
9:54 AM,57.0,45.0,64,29.85,10.0,SE,10.4,-,N/A,,Clear,140,2012-11-02 14:54:00
10:54 AM,64.9,46.0,50,29.83,10.0,SSE,11.5,-,N/A,,Clear,150,2012-11-02 15:54:00
11:54 AM,70.0,46.0,42,29.83,10.0,South,10.4,-,N/A,,Clear,180,2012-11-02 16:54:00
12:54 PM,75.0,45.0,34,29.78,10.0,South,12.7,-,N/A,,Clear,190,2012-11-02 17:54:00
1:54 PM,80.1,45.0,29,29.76,10.0,South,16.1,-,N/A,,Clear,180,2012-11-02 18:54:00
2:54 PM,81.0,45.0,28,29.75,10.0,SSW,10.4,-,N/A,,Clear,210,2012-11-02 19:54:00
3:54 PM,82.9,42.1,24,29.73,10.0,SW,12.7,-,N/A,,Clear,230,2012-11-02 20:54:00
4:54 PM,79.0,42.1,27,29.76,10.0,WNW,8.1,-,N/A,,Clear,300,2012-11-02 21:54:00
5:54 PM,73.9,36.0,25,29.78,10.0,WNW,10.4,-,N/A,,Clear,300,2012-11-02 22:54:00
6:54 PM,66.0,39.9,38,29.82,10.0,NW,11.5,-,N/A,,Clear,320,2012-11-02 23:54:00
7:54 PM,63.0,42.1,46,29.85,10.0,North,15.0,-,N/A,,Clear,350,2012-11-03 00:54:00
8:54 PM,59.0,43.0,55,29.88,10.0,NNW,12.7,-,N/A,,Clear,340,2012-11-03 01:54:00
9:54 PM,57.0,42.1,57,29.91,10.0,NNW,13.8,-,N/A,,Clear,340,2012-11-03 02:54:00
10:54 PM,55.0,41.0,59,29.94,10.0,NNW,17.3,-,N/A,,Clear,340,2012-11-03 03:54:00
11:54 PM,52.0,37.9,59,29.96,10.0,NNW,16.1,-,N/A,,Clear,340,2012-11-03 04:54:00